O'Neill, NE

7:47 PM CDT on October 19, 2017 (GMT -0500)
The O'Neill Municipal-Baker

Weather History for KONL - March, 2014

Change the Weather History Date:

Thursday, March 13, 2014

  Actual Average Record
Temperature  
Mean Temperature 49 °F -  
Max Temperature 68 °F 46 °F 79 °F (2012)
Min Temperature 30 °F 24 °F -11 °F (1975)
Degree Days  
Heating Degree Days 16    
Moisture  
Dew Point 19 °F    
Average Humidity 41    
Maximum Humidity 79    
Minimum Humidity 9    
Precipitation  
Precipitation 0.00 in - - ()
Sea Level Pressure  
Sea Level Pressure 29.84 in    
Wind  
Wind Speed 10 mph (WSW)    
Max Wind Speed 25 mph    
Max Gust Speed 30 mph    
Visibility 10 miles    
Events      
Averages and records for this station are not official NWS values.
T = Trace of Precipitation, MM = Missing Value Source: NWS Daily Summary

Daily Weather History Graph

Daily Weather History Graph

Search for Another Location

Airport or City:

Trip Planner

Search our weather history database for the weather conditions in past years. The results will help you decide how hot, cold, wet, or windy it might be!

Date:

Astronomy

Mar. 13, 2014 Rise Set
Actual Time 7:50 AM CDT 7:38 PM CDT
Civil Twilight 7:22 AM CDT 8:06 PM CDT
Nautical Twilight 6:49 AM CDT 8:39 PM CDT
Astronomical Twilight 6:16 AM CDT 9:12 PM CDT
Moon 5:03 PM CDT (3/13) 6:00 AM CDT (3/13)
Length of Visible Light 12h 44m
Length of Day
11h 48m
Waxing Gibbous, 91% of the Moon is Illuminated
Mar 13
Waxing Gibbous
Mar 16
Full
Mar 23
Last Quarter
Mar 30
New
Apr 7
First Quarter

Hourly Weather History & Observations

Time (CDT) Temp. Windchill Dew Point Humidity Pressure Visibility Wind Dir Wind Speed Gust Speed Precip Events Conditions
12:15 AM 34.9 °F 28.3 °F 24.1 °F 65% 30.04 in 10.0 mi West 8.1 mph - N/A   Clear
12:35 AM 36.0 °F 29.6 °F 24.1 °F 62% 30.04 in 10.0 mi West 8.1 mph - N/A   Clear
12:55 AM 35.6 °F 28.6 °F 23.9 °F 62% 30.03 in 10.0 mi West 9.2 mph - N/A   Clear
1:15 AM 34.9 °F 28.3 °F 24.4 °F 66% 30.03 in 10.0 mi WSW 8.1 mph - N/A   Clear
1:35 AM 35.6 °F 28.6 °F 24.8 °F 65% 30.02 in 10.0 mi WSW 9.2 mph - N/A   Clear
1:55 AM 35.6 °F 29.2 °F 25.2 °F 66% 30.02 in 10.0 mi West 8.1 mph - N/A   Clear
2:15 AM 35.1 °F 27.4 °F 25.3 °F 68% 30.02 in 10.0 mi WSW 10.4 mph - N/A   Clear
2:35 AM 35.1 °F 27.9 °F 25.7 °F 69% 30.02 in 10.0 mi West 9.2 mph - N/A   Clear
2:55 AM 35.6 °F 28.6 °F 25.7 °F 67% 30.01 in 10.0 mi West 9.2 mph - N/A   Clear
3:15 AM 35.6 °F 28.6 °F 25.7 °F 67% 30.01 in 10.0 mi West 9.2 mph - N/A   Clear
3:35 AM 34.9 °F 27.1 °F 25.7 °F 69% 30.01 in 10.0 mi West 10.4 mph - N/A   Clear
3:55 AM 34.3 °F 26.5 °F 25.7 °F 71% 30.00 in 10.0 mi West 10.4 mph - N/A   Clear
4:15 AM 34.7 °F 26.9 °F 25.3 °F 69% 30.00 in 10.0 mi West 10.4 mph - N/A   Clear
4:35 AM 34.3 °F 27.0 °F 25.2 °F 69% 30.00 in 10.0 mi WSW 9.2 mph - N/A   Clear
4:55 AM 34.7 °F 28.1 °F 25.2 °F 68% 29.99 in 10.0 mi WSW 8.1 mph - N/A   Clear
5:15 AM 32.9 °F 26.7 °F 24.6 °F 72% 29.99 in 10.0 mi WSW 6.9 mph - N/A   Clear
5:35 AM 30.7 °F 24.1 °F 23.9 °F 76% 29.99 in 10.0 mi SW 6.9 mph - N/A   Clear
5:55 AM 31.1 °F 25.4 °F 24.4 °F 76% 29.98 in 10.0 mi WSW 5.8 mph - N/A   Clear
6:15 AM 31.6 °F 27.0 °F 24.3 °F 74% 29.98 in 10.0 mi WSW 4.6 mph - N/A   Clear
6:35 AM 30.4 °F 25.6 °F 24.1 °F 77% 29.97 in 10.0 mi SW 4.6 mph - N/A   Clear
6:55 AM 30.2 °F 24.3 °F 24.3 °F 79% 29.97 in 10.0 mi SW 5.8 mph - N/A   Clear
7:15 AM 30.0 °F 24.1 °F 24.1 °F 79% 29.97 in 10.0 mi WSW 5.8 mph - N/A   Clear
7:35 AM 31.6 °F 25.1 °F 24.8 °F 76% 29.97 in 10.0 mi WSW 6.9 mph - N/A   Clear
7:55 AM 32.4 °F 24.6 °F 25.2 °F 75% 29.97 in 10.0 mi WSW 9.2 mph - N/A   Clear
8:15 AM 32.4 °F 26.0 °F 24.8 °F 74% 29.97 in 10.0 mi SW 6.9 mph - N/A   Clear
8:35 AM 34.3 °F 27.7 °F 25.5 °F 70% 29.96 in 10.0 mi WSW 8.1 mph - N/A   Clear
8:55 AM 35.8 °F 28.8 °F 25.7 °F 67% 29.96 in 10.0 mi SW 9.2 mph - N/A   Clear
9:15 AM 37.8 °F 30.7 °F 26.1 °F 63% 29.96 in 10.0 mi WSW 10.4 mph - N/A   Clear
9:35 AM 40.1 °F 34.1 °F 26.1 °F 57% 29.95 in 10.0 mi WSW 9.2 mph - N/A   Clear
9:55 AM 43.3 °F 38.1 °F 25.9 °F 50% 29.95 in 10.0 mi SW 9.2 mph - N/A   Clear
10:15 AM 46.6 °F - 24.3 °F 42% 29.93 in 10.0 mi WSW 11.5 mph - N/A   Clear
10:35 AM 49.8 °F - 23.0 °F 35% 29.93 in 10.0 mi SW 8.1 mph - N/A   Clear
10:55 AM 52.5 °F - 21.2 °F 29% 29.92 in 10.0 mi SW 11.5 mph - N/A   Clear
11:15 AM 54.5 °F - 20.1 °F 26% 29.90 in 10.0 mi SW 11.5 mph - N/A   Clear
11:35 AM 56.8 °F - 18.3 °F 22% 29.89 in 10.0 mi SW 16.1 mph 19.6 mph N/A   Clear
11:55 AM 58.6 °F - 18.0 °F 21% 29.88 in 10.0 mi WSW 15.0 mph 20.7 mph N/A   Clear
12:15 PM 60.1 °F - 17.8 °F 19% 29.87 in 10.0 mi SW 16.1 mph - N/A   Clear
12:35 PM 61.0 °F - 16.3 °F 18% 29.85 in 10.0 mi WSW 17.3 mph 24.2 mph N/A   Clear
12:55 PM 62.1 °F - 15.6 °F 16% 29.83 in 10.0 mi SW 21.9 mph - N/A   Clear
1:15 PM 63.3 °F - 16.0 °F 16% 29.83 in 10.0 mi SW 21.9 mph 28.8 mph N/A   Clear
1:35 PM 63.3 °F - 16.2 °F 16% 29.81 in 10.0 mi WSW 18.4 mph 25.3 mph N/A   Clear
1:55 PM 64.9 °F - 16.9 °F 16% 29.79 in 10.0 mi SW 20.7 mph - N/A   Clear
2:15 PM 65.8 °F - 15.1 °F 14% 29.77 in 10.0 mi WSW 18.4 mph 29.9 mph N/A   Clear
2:35 PM 66.9 °F - 13.8 °F 13% 29.75 in 10.0 mi WSW 20.7 mph 27.6 mph N/A   Clear
2:55 PM 67.5 °F - 11.1 °F 11% 29.73 in 10.0 mi WSW 17.3 mph 26.5 mph N/A   Clear
3:15 PM 67.5 °F - 10.2 °F 11% 29.72 in 10.0 mi WSW 23.0 mph 29.9 mph N/A   Clear
3:35 PM 68.2 °F - 10.0 °F 10% 29.71 in 10.0 mi WSW 24.2 mph 29.9 mph N/A   Clear
3:55 PM 68.5 °F - 10.4 °F 10% 29.70 in 10.0 mi SW 19.6 mph 27.6 mph N/A   Clear
4:15 PM 68.2 °F - 9.9 °F 10% 29.69 in 10.0 mi WSW 18.4 mph 29.9 mph N/A   Clear
4:35 PM 68.4 °F - 9.3 °F 10% 29.69 in 10.0 mi WSW 18.4 mph 29.9 mph N/A   Clear
4:55 PM 68.5 °F - 9.1 °F 10% 29.68 in 10.0 mi West 25.3 mph 28.8 mph N/A   Clear
5:15 PM 68.2 °F - 8.2 °F 10% 29.67 in 10.0 mi West 23.0 mph 28.8 mph N/A   Clear
5:35 PM 68.0 °F - 7.7 °F 9% 29.67 in 10.0 mi West 18.4 mph 26.5 mph N/A   Clear
5:55 PM 68.2 °F - 6.3 °F 9% 29.65 in 10.0 mi WSW 15.0 mph 23.0 mph N/A   Clear
6:15 PM 67.8 °F - 5.9 °F 9% 29.65 in 10.0 mi West 17.3 mph 25.3 mph N/A   Clear
6:35 PM 66.9 °F - 7.7 °F 10% 29.64 in 10.0 mi West 12.7 mph - N/A   Clear
6:55 PM 65.5 °F - 8.1 °F 11% 29.65 in 10.0 mi WSW 12.7 mph - N/A   Clear
7:15 PM 63.7 °F - 7.9 °F 11% 29.65 in 10.0 mi WSW 9.2 mph - N/A   Clear
7:35 PM 60.4 °F - 10.6 °F 14% 29.65 in 10.0 mi WSW 8.1 mph - N/A   Clear
7:55 PM 55.4 °F - 13.3 °F 19% 29.65 in 10.0 mi WSW 8.1 mph - N/A   Clear
8:15 PM 54.1 °F - 15.6 °F 22% 29.66 in 10.0 mi WNW 6.9 mph - N/A   Clear
8:35 PM 52.2 °F - 15.4 °F 23% 29.65 in 10.0 mi WSW 6.9 mph - N/A   Clear
8:55 PM 52.2 °F - 15.6 °F 24% 29.65 in 10.0 mi WSW 5.8 mph - N/A   Clear
9:15 PM 50.0 °F - 15.8 °F 26% 29.66 in 10.0 mi West 8.1 mph - N/A   Clear
9:35 PM 49.6 °F - 16.2 °F 26% 29.66 in 10.0 mi WSW 3.5 mph - N/A   Clear
9:55 PM 48.7 °F - 17.1 °F 28% 29.67 in 10.0 mi West 4.6 mph - N/A   Clear
10:15 PM 47.5 °F - 17.4 °F 30% 29.67 in 10.0 mi West 4.6 mph - N/A   Clear
10:35 PM 47.1 °F - 22.3 °F 38% 29.69 in 10.0 mi WNW 6.9 mph - N/A   Clear
10:55 PM 47.8 °F - 23.7 °F 39% 29.69 in 10.0 mi NW 9.2 mph - N/A   Clear
11:15 PM 46.0 °F 41.4 °F 24.6 °F 43% 29.70 in 10.0 mi NW 9.2 mph - N/A   Clear
11:35 PM 46.8 °F - 25.7 °F 44% 29.70 in 10.0 mi NNW 9.2 mph - N/A   Clear
11:55 PM 46.9 °F - 26.2 °F 44% 29.71 in 10.0 mi NW 9.2 mph - N/A   Scattered Clouds